SCP
0 0 0 0 0 0 0 0 0 0 0 0 0 0 0 0 0 0 0 0 0 0 0 0 0 0 0 0 0 0 0 0 0 0 0 0 0 0 0 0 0 0 0 0
0 0 0 0 0 0 0 0 0 0 0 0 0 0 0 0 0 0 0 0 0 0 0 0 0 0 0 0 0 0 0 0 0 0 0 0 0 0 0 0 0 0 0 0
0 0 0 0 0 0 0 0 0 0 0 0 0 0 0 0 0 0 0 0 0 0 0 0 0 0 0 0 0 0 0 0 0 0 0 0 0 0 0 0 0 0 0 0
0 0 0 0 0 0 0 0 0 0 0 0 0 0 0 0 0 0 0 0 0 0 0 0 0 0 0 0 0 0 0 0 0 0 0 0 0 0 0 0 0 0 0 0
0 0 0 0 0 0 0 0 0 0 0 0 0 0 0 0 0 0 0 0 0 0 0 0 0 0 0 0 0 0 0 0 0 0 0 0 0 0 0 0 0 0 0 0
0 0 0 0 0 0 0 0 0 0 0 0 0 0 0 0 0 0 0 0 0 0 0 0 0 0 0 0 0 0 0 0 0 0 0 0 0 0 0 0 0 0 0 0
0 0 0 0 0 0 0 0 0 0 0 0 0 0 0 0 0 0 0 0 0 0 0 0 0 0 0 0 0 0 0 0 0 0 0 0 0 0 0 0 0 0 0 0
0 0 0 0 0 0 0 0 0 0 0 0 0 0 0 0 0 0 0 0 0 0 0 0 0 0 0 0 0 0 0 0 0 0 0 0 0 0 0 0 0 0 0 0
0 0 0 0 0 0 0 0 0 0 0 0 0 0 0 0 0 0 0 0 0 0 0 0 0 0 0 0 0 0 0 0 0 0 0 0 0 0 0 0 0 0 0 0
0 0 0 0 0 0 0 0 0 0 0 0 0 0 0 0 0 0 0 0 0 0 0 0 0 0 0 0 0 0 0 0 0 0 0 0 0 0 0 0 0 0 0 0
0 0 0 0 0 0 0 0 0 0 0 0 0 0 0 0 0 0 0 0 0 0 0 0 0 0 0 0 0 0 0 0 0 0 0 0 0 0 0 0 0 0 0 0
0 0 0 0 0 0 0 0 0 0 0 0 0 0 0 0 0 0 0 0 0 0 0 0 0 0 0 0 0 0 0 0 0 0 0 0 0 0 0 0 0 0 0 0
0 0 0 0 0 0 0 0 0 0 0 0 0 0 0 0 0 0 0 0 0 0 0 0 0 0 0 0 0 0 0 0 0 0 0 0 0 0 0 0 0 0 0 0
0 0 0 0 0 0 0 0 0 0 0 0 0 0 0 0 0 0 0 0 0 0 0 0 0 0 0 0 0 0 0 0 0 0 0 0 0 0 0 0 0 0 0 0
0 0 0 0 0 0 0 0 0 0 0 0 0 0 0 0 0 0 0 0 0 0 0 0 0 0 0 0 0 0 0 0 0 0 0 0 0 0 0 0 0 0 0 0
0 0 0 0 0 0 0 0 0 0 0 0 0 0 0 0 0 0 0 0 0 0 0 0 0 0 0 0 0 0 0 0 0 0 0 0 0 0 0 0 0 0 0 0
0 0 0 0 0 0 0 0 0 0 0 0 0 0 0 0 0 0 0 0 0 0 0 0 0 0 0 0 0 0 0 0 0 0 0 0 0 0 0 0 0 0 0 0
0 0 0 0 0 0 0 0 0 0 0 0 0 0 0 0 0 0 0 0 0 0 0 0 0 0 0 0 0 0 0 0 0 0 0 0 0 0 0 0 0 0 0 0
0 0 0 0 0 0 0 0 0 0 0 0 0 0 0 0 0 0 0 0 0 0 0 0 0 0 0 0 0 0 0 0 0 0 0 0 0 0 0 0 0 0 0 0
0 0 0 0 0 0 0 0 0 0 0 0 0 0 0 0 0 0 0 0 0 0 0 0 0 0 0 0 0 0 0 0 0 0 0 0 0 0 0 0 0 0 0 0
0 0 0 0 0 0 0 0 0 0 0 0 0 0 0 0 0 0 0 0 0 0 0 0 0 0 0 0 0 0 0 0 0 0 0 0 0 0 0 0 0 0 0 0
0 0 0 0 0 0 0 0 0 0 0 0 0 0 0 0 0 0 0 0 0 0 0 0 0 0 0 0 0 0 0 0 0 0 0 0 0 0 0 0 0 0 0 0
0 0 0 0 0 0 0 0 0 0 0 0 0 0 0 0 0 0 0 0 0 0 0 0 0 0 0 0 0 0 0 0 0 0 0 0 0 0 0 0 0 0 0 0
0 0 0 0 0 0 0 0 0 0 0 0 0 0 0 0 0 0 0 0 0 0 0 0 0 0 0 0 0 0 0 0 0 0 0 0 0 0 0 0 0 0 0 0
0 0 0 0 0 0 0 0 0 0 0 0 0 0 0 0 0 0 0 0 0 0 0 0 0 0 0 0 0 0 0 0 0 0 0 0 0 0 0 0 0 0 0 0
0 0 0 0 0 0 0 0 0 0 0 0 0 0 0 0 0 0 0 0 0 0 0 0 0 0 0 0 0 0 0 0 0 0 0 0 0 0 0 0 0 0 0 0
Wind_Speed
13 11 16 17 17 15 12 11 10 8 6 8 10 12 11 10 10 10 10 10 10 10 9 9 10 11 11 11 13 15 15 14 12 10 10 9 8 7 7 6 8 9 8 7
13 20 19 15 15 16 16 15 13 9 5 5 8 12 11 11 11 11 11 11 11 10 9 8 9 11 12 13 13 15 16 16 14 11 10 8 8 6 6 6 7 8 8 8
25 16 18 19 18 17 18 16 13 10 8 8 8 12 13 12 13 13 12 12 11 11 10 9 10 11 12 13 14 13 16 16 15 12 9 8 6 5 5 7 6 7 9 8
21 20 18 20 20 18 16 13 12 10 8 7 7 10 9 9 10 11 11 11 10 10 9 9 10 11 12 13 12 12 14 15 14 14 13 14 11 8 7 7 6 7 8 8
14 18 20 21 20 18 13 8 9 9 8 10 10 11 8 8 11 10 9 9 8 8 8 8 9 11 10 11 11 11 12 14 14 14 14 14 10 8 6 8 8 8 7 8
17 14 16 18 14 13 10 7 6 6 6 13 14 12 9 8 10 7 7 6 6 5 5 5 6 8 8 9 9 10 11 13 14 15 15 15 13 11 11 11 10 8 6 6
20 19 15 11 13 12 11 8 5 6 8 10 9 11 10 8 7 7 6 5 4 4 5 5 6 9 9 10 10 10 12 13 14 15 15 15 14 13 13 12 11 9 7 5
18 18 18 14 15 13 14 15 11 8 7 6 9 12 8 6 6 6 5 4 4 4 5 6 7 8 9 10 11 11 12 13 15 16 15 14 13 10 9 10 9 10 7 7
14 16 14 15 13 13 16 17 14 8 7 6 6 7 8 7 5 5 6 5 5 5 6 6 7 8 9 10 11 11 12 12 14 14 13 13 13 11 10 10 9 8 7 7
10 11 12 14 12 16 14 11 7 9 8 9 8 11 8 8 9 8 7 6 6 6 6 6 7 7 8 9 9 9 10 11 12 12 12 10 11 10 10 10 11 10 10 10
16 11 8 12 19 20 16 15 10 8 8 6 6 7 8 10 9 9 7 6 6 6 6 6 6 7 8 8 9 10 10 10 11 12 11 10 10 10 10 10 10 10 9 11
13 8 9 10 10 11 16 18 16 13 10 10 8 8 2 2 5 6 6 6 6 6 6 6 7 7 8 9 10 10 10 11 11 11 11 10 10 10 10 10 10 10 11 11
9 6 8 7 7 10 13 17 18 15 10 9 10 8 6 5 5 5 5 5 6 6 6 6 7 7 8 9 10 10 10 10 10 11 11 10 10 11 10 10 10 10 11 10
8 7 10 12 8 10 14 16 16 16 14 15 16 13 6 5 6 6 6 6 7 7 7 7 7 7 8 8 9 10 10 10 11 11 11 11 11 11 10 10 10 11 11 11
3 8 10 12 10 11 15 17 19 21 19 16 16 17 14 8 7 7 7 7 7 7 8 8 8 8 8 9 9 9 9 10 10 11 11 10 10 9 9 10 10 10 10 10
2 5 9 13 13 11 12 16 18 21 21 21 17 18 11 8 7 6 6 7 7 7 8 8 8 8 9 10 10 10 10 10 10 10 10 9 10 10 10 10 10 10 10 9
4 4 6 10 11 10 15 16 18 18 19 19 23 20 9 10 9 8 7 7 7 7 7 8 9 9 9 10 10 10 10 9 10 9 9 10 10 10 10 10 10 10 10 9
10 9 5 5 7 14 12 9 15 17 17 17 17 12 11 11 8 7 7 7 7 7 7 7 7 8 7 8 8 9 9 10 10 9 9 10 10 10 10 10 10 9 8 9
15 13 7 5 7 9 8 9 13 15 18 17 16 14 11 8 6 8 8 7 6 6 6 6 7 7 7 8 9 10 9 10 10 10 10 10 11 11 11 11 10 8 8 7
13 12 9 7 8 10 8 8 7 8 15 13 14 14 11 9 10 10 6 6 5 5 4 5 6 7 8 8 9 10 10 10 10 10 9 9 10 11 11 10 9 7 7 7
9 10 13 11 8 9 7 5 6 10 10 6 11 12 10 12 12 6 6 5 5 5 5 6 7 6 7 8 10 10 9 9 9 8 8 8 9 9 8 8 7 7 6 7
9 8 11 10 9 10 5 6 9 6 3 3 4 7 9 9 6 6 7 7 6 6 6 6 6 6 6 8 9 9 8 7 8 9 8 8 8 7 7 7 7 7 7 7
9 9 5 8 9 4 5 6 5 3 3 2 2 3 3 5 6 6 7 7 7 7 6 6 7 7 6 6 8 9 7 8 9 9 8 8 8 7 7 7 7 6 6 6
6 6 6 6 9 7 5 4 3 2 2 2 1 1 2 4 5 6 7 7 7 7 7 7 8 8 6 6 7 7 8 9 9 9 8 7 7 6 6 5 6 6 6 6
7 6 8 9 6 6 7 5 5 4 3 1 1 1 2 5 5 6 6 7 7 7 6 7 8 8 7 7 7 8 8 9 9 8 7 6 6 6 5 4 4 5 5 7
9 9 10 10 7 6 8 7 6 4 4 3 2 1 1 3 5 6 6 6 7 8 7 7 8 8 8 8 8 7 7 8 9 8 7 5 5 4 4 4 3 3 3 5
Wind_Direction
194 207 213 212 216 231 248 249 244 244 223 210 227 240 245 244 246 245 241 238 237 236 227 205 188 177 173 174 174 174 175 178 174 176 176 177 178 173 170 171 175 176 173 169
199 217 217 215 218 224 236 250 259 268 257 243 253 256 254 246 243 241 242 241 238 237 230 212 189 178 176 178 178 177 177 178 179 179 177 175 170 170 169 168 174 173 170 167
214 214 211 220 222 222 227 233 242 255 276 264 269 266 253 249 241 240 238 238 238 233 227 211 193 183 176 179 181 181 179 178 178 170 166 163 159 155 164 171 172 173 171 170
224 224 212 214 222 220 230 225 237 248 256 261 254 274 255 251 245 235 232 231 231 229 224 210 194 185 181 182 179 178 176 175 175 170 173 174 176 176 174 169 168 171 172 169
218 213 217 219 217 218 227 219 229 235 246 260 255 267 260 236 240 234 229 225 225 223 217 208 193 183 178 172 170 173 172 173 173 175 177 179 179 175 160 161 166 171 170 167
235 223 217 222 220 216 210 207 234 244 242 248 234 242 263 225 228 228 218 215 212 206 199 193 177 167 165 159 161 168 172 174 175 178 180 183 181 175 169 169 171 171 166 167
231 234 227 214 212 207 195 184 203 211 218 239 209 226 247 218 216 216 214 211 195 189 178 179 172 168 164 162 165 171 174 175 177 181 185 187 185 181 176 172 171 168 166 168
213 221 217 217 213 201 198 195 197 200 212 226 199 224 240 215 200 196 195 194 195 190 180 180 178 171 166 166 169 174 178 178 178 183 187 186 184 183 178 173 169 170 170 169
208 220 201 204 208 207 201 208 219 248 273 275 239 229 228 213 201 199 196 196 198 194 183 179 176 168 167 170 175 179 179 178 180 184 184 184 183 180 175 169 164 166 163 162
236 228 204 194 193 219 214 196 197 215 225 240 250 247 240 214 206 207 198 194 191 182 178 174 174 171 168 170 172 176 179 180 179 181 183 182 181 177 170 166 167 165 161 159
240 240 212 190 196 200 200 203 193 196 220 221 234 238 222 211 198 187 182 174 169 172 173 173 172 169 164 164 169 176 180 179 179 180 179 177 177 173 168 168 167 162 158 158
224 237 227 221 211 208 206 208 200 199 206 214 240 255 252 162 158 158 158 151 150 158 163 165 165 163 165 170 174 180 182 181 179 178 177 176 173 167 167 167 164 159 160 162
220 224 210 201 215 214 217 213 213 215 226 226 224 242 212 202 177 158 159 164 161 160 163 164 167 172 175 175 177 180 182 181 177 175 176 174 169 168 169 166 163 160 160 161
225 217 218 211 202 197 212 219 217 215 222 231 234 239 229 198 188 180 177 181 175 171 172 174 177 180 179 177 177 179 182 179 174 174 175 174 172 171 169 165 163 162 161 163
216 227 236 245 241 206 210 215 218 221 222 224 230 234 236 228 217 205 194 189 187 178 180 185 183 183 179 177 178 180 181 176 171 170 173 174 169 166 164 164 162 160 161 164
284 235 242 248 246 245 235 222 220 226 228 232 240 244 236 240 229 222 213 199 197 195 188 185 182 183 183 182 180 178 178 173 168 171 173 167 165 165 165 163 159 158 159 160
254 242 234 241 242 247 240 226 222 226 228 228 236 240 237 246 244 233 222 215 206 199 188 182 184 187 186 183 177 176 171 163 165 168 168 166 165 164 163 160 159 162 164 161
232 236 237 238 222 228 235 221 224 230 233 229 236 238 228 233 238 234 222 220 222 202 185 180 177 180 177 170 166 161 158 159 163 166 167 166 163 163 161 162 165 165 164 168
220 216 218 222 225 247 247 219 213 221 236 227 234 235 230 233 252 250 228 215 207 193 178 173 171 168 162 161 158 153 157 159 163 170 171 168 164 163 165 169 169 165 165 171
217 208 203 211 215 225 232 206 201 209 247 228 227 232 222 203 228 239 206 196 186 166 155 153 150 144 150 154 149 152 159 163 173 172 167 162 162 165 169 170 166 162 164 169
204 205 205 209 220 244 248 210 161 194 236 225 222 226 214 212 222 201 166 171 160 149 142 135 133 138 148 147 146 154 159 170 165 151 148 152 158 161 161 159 159 159 159 161
204 205 204 204 211 230 215 177 188 222 265 253 231 223 214 215 202 164 154 143 138 134 130 129 128 130 134 140 144 149 158 150 136 138 143 148 149 151 152 155 159 160 159 162
209 200 198 209 223 243 193 208 222 221 250 268 269 271 203 186 178 161 151 146 144 141 135 128 128 126 126 134 140 144 144 134 133 135 140 141 142 145 151 156 159 158 159 162
244 216 217 232 240 253 252 252 251 267 271 284 277 259 181 167 160 154 152 150 147 142 139 134 131 130 128 126 124 130 131 130 131 136 137 139 142 146 149 153 157 161 167 168
254 247 243 245 246 234 231 236 251 276 303 329 338 290 185 155 153 155 154 153 149 142 140 139 140 137 133 125 119 122 127 128 130 132 133 136 141 147 148 150 160 167 180 180
239 234 230 242 232 232 242 238 242 238 250 241 227 235 213 164 159 150 150 148 142 140 136 135 133 132 130 125 122 123 126 130 132 134 137 140 142 142 141 138 118 116 157 177